TimeGMT,TemperatureF,Dew PointF,Humidity,Sea Level PressureIn,VisibilityMPH,Wind Direction,Wind SpeedMPH,Gust SpeedMPH,PrecipitationIn,Events,Conditions,WindDirDegrees,DateUTC
12:00 AM,34,33,92,29.60,12,SW,8.9,,,,Partly Cloudy,230,2013-01-28 00:00:00
12:00 AM,33.8,32.0,93,29.56,6.2,SW,9.2,-,N/A,,Partly Cloudy,230,2013-01-28 00:00:00
12:30 AM,33.8,32.0,93,29.59,6.2,SW,9.2,-,N/A,,Partly Cloudy,220,2013-01-28 00:30:00
1:00 AM,35.6,33.8,93,29.59,6.2,SW,12.7,-,N/A,,Partly Cloudy,230,2013-01-28 01:00:00
1:30 AM,39.2,35.6,87,29.59,6.2,WSW,16.1,-,N/A,,Scattered Clouds,250,2013-01-28 01:30:00
2:00 AM,37.4,33.8,87,29.62,6.2,WSW,11.5,-,N/A,,Partly Cloudy,250,2013-01-28 02:00:00
2:30 AM,35.6,33.8,93,29.59,6.2,SW,11.5,-,N/A,,Partly Cloudy,220,2013-01-28 02:30:00
3:00 AM,35.6,33.8,93,29.59,6.2,SW,12.7,-,N/A,,Partly Cloudy,220,2013-01-28 03:00:00
3:30 AM,37.4,33.8,87,29.59,6.2,SW,10.4,-,N/A,,Partly Cloudy,220,2013-01-28 03:30:00
4:00 AM,37.4,35.6,93,29.59,6.2,SW,13.8,-,N/A,,Partly Cloudy,220,2013-01-28 04:00:00
4:30 AM,37.4,35.6,93,29.59,6.2,SW,12.7,-,N/A,,Partly Cloudy,220,2013-01-28 04:30:00
5:00 AM,37.4,35.6,93,29.56,6.2,SSW,9.2,-,N/A,,Partly Cloudy,200,2013-01-28 05:00:00
5:30 AM,41.0,37.4,87,29.56,6.2,SSW,11.5,-,N/A,,Scattered Clouds,210,2013-01-28 05:30:00
6:00 AM,42,39,84,29.57,16,SSW,15.7,,,,Scattered Clouds,210,2013-01-28 06:00:00
6:00 AM,42.8,39.2,87,29.53,6.2,SSW,16.1,-,N/A,,Mostly Cloudy,210,2013-01-28 06:00:00
6:30 AM,42.8,39.2,87,29.53,6.2,SSW,19.6,31.1,N/A,,Mostly Cloudy,200,2013-01-28 06:30:00
7:00 AM,44.6,41.0,87,29.50,6.2,SSW,19.6,-,N/A,Rain,Light Rain,200,2013-01-28 07:00:00
7:30 AM,42.8,41.0,93,29.47,6.2,SSW,24.2,-,N/A,Rain,Light Rain,200,2013-01-28 07:30:00
8:00 AM,44.6,42.8,93,29.44,6.2,SSW,23.0,35.7,N/A,,Mostly Cloudy,200,2013-01-28 08:00:00
8:30 AM,44.6,42.8,93,29.44,6.2,South,24.2,40.3,N/A,,Mostly Cloudy,190,2013-01-28 08:30:00
9:00 AM,46.4,42.8,87,29.42,6.2,South,28.8,44.9,N/A,Rain,Light Rain Showers,190,2013-01-28 09:00:00
9:30 AM,44.6,44.6,100,29.39,3.1,South,26.5,38.0,N/A,Rain,Light Rain Showers,190,2013-01-28 09:30:00
10:00 AM,46.4,46.4,100,29.33,2.8,South,26.5,40.3,N/A,Rain,Light Rain,180,2013-01-28 10:00:00
10:30 AM,46.4,46.4,100,29.27,1.1,South,29.9,43.7,N/A,Rain,Rain,190,2013-01-28 10:30:00
11:00 AM,46.4,46.4,100,29.24,1.6,SSW,32.2,44.9,N/A,Rain,Rain,200,2013-01-28 11:00:00
11:30 AM,48.2,48.2,100,29.21,1.9,SSW,35.7,50.6,N/A,Rain,Rain,200,2013-01-28 11:30:00
12:00 PM,49,49,100,29.24,6,SSW,40.3,,,Rain,Light Rain,210,2013-01-28 12:00:00
12:00 PM,48.2,48.2,100,29.21,5.6,SSW,40.3,56.4,N/A,Rain,Light Rain,210,2013-01-28 12:00:00
12:30 PM,50.0,50.0,100,29.21,5.6,SW,40.3,61.0,N/A,Rain,Light Rain,220,2013-01-28 12:30:00
1:00 PM,51.8,48.2,88,29.24,6.2,SW,31.1,47.2,N/A,,Mostly Cloudy,230,2013-01-28 13:00:00
1:30 PM,51.8,46.4,82,29.24,6.2,SW,29.9,49.5,N/A,,Mostly Cloudy,230,2013-01-28 13:30:00
2:00 PM,50.0,46.4,87,29.24,6.2,SW,25.3,44.9,N/A,,Mostly Cloudy,230,2013-01-28 14:00:00
2:30 PM,50.0,42.8,76,29.27,6.2,WSW,27.6,44.9,N/A,,Mostly Cloudy,240,2013-01-28 14:30:00
3:00 PM,50.0,44.6,82,29.27,6.2,WSW,18.4,49.5,N/A,,Mostly Cloudy,240,2013-01-28 15:00:00
3:30 PM,50.0,42.8,76,29.27,6.2,WSW,29.9,43.7,N/A,,Mostly Cloudy,240,2013-01-28 15:30:00
4:00 PM,50.0,42.8,76,29.27,6.2,SW,31.1,43.7,N/A,,Mostly Cloudy,230,2013-01-28 16:00:00
4:30 PM,50.0,42.8,76,29.27,6.2,SW,27.6,42.6,N/A,,Mostly Cloudy,230,2013-01-28 16:30:00
5:00 PM,50.0,42.8,76,29.27,6.2,WSW,29.9,47.2,N/A,,Mostly Cloudy,240,2013-01-28 17:00:00
5:30 PM,48.2,42.8,82,29.30,6.2,WSW,28.8,47.2,N/A,,Mostly Cloudy,240,2013-01-28 17:30:00
6:00 PM,49,43,74,29.34,10,WSW,26.8,,,,Partly Cloudy,240,2013-01-28 18:00:00
6:00 PM,50.0,42.8,76,29.33,6.2,WSW,26.5,39.1,N/A,,Mostly Cloudy,240,2013-01-28 18:00:00
6:30 PM,48.2,41.0,76,29.33,6.2,WSW,31.1,48.3,N/A,,Mostly Cloudy,240,2013-01-28 18:30:00
7:00 PM,48.2,41.0,76,29.33,6.2,WSW,26.5,48.3,N/A,,Mostly Cloudy,240,2013-01-28 19:00:00
7:30 PM,48.2,41.0,76,29.36,6.2,WSW,27.6,42.6,N/A,,Mostly Cloudy,250,2013-01-28 19:30:00
8:00 PM,48.2,41.0,76,29.39,6.2,WSW,25.3,39.1,N/A,,Mostly Cloudy,250,2013-01-28 20:00:00
8:30 PM,46.4,41.0,81,29.42,6.2,WSW,24.2,-,N/A,,Mostly Cloudy,250,2013-01-28 20:30:00
9:00 PM,46.4,41.0,81,29.42,6.2,WSW,23.0,-,N/A,,Mostly Cloudy,250,2013-01-28 21:00:00
9:30 PM,46.4,41.0,81,29.44,6.2,WSW,16.1,-,N/A,,Mostly Cloudy,240,2013-01-28 21:30:00
10:00 PM,46.4,41.0,81,29.44,6.2,WSW,11.5,-,N/A,,Mostly Cloudy,240,2013-01-28 22:00:00
10:30 PM,44.6,41.0,87,29.47,6.2,SW,8.1,-,N/A,,Mostly Cloudy,230,2013-01-28 22:30:00
11:00 PM,46.4,41.0,81,29.50,6.2,SW,9.2,-,N/A,,Mostly Cloudy,230,2013-01-28 23:00:00
11:30 PM,44.6,41.0,87,29.50,6.2,SW,8.1,-,N/A,,Mostly Cloudy,230,2013-01-28 23:30:00